Theta_e
325 328 331 331 330 327 328 326 324 324 321 324 327 328 323 328 327 327 336 338 338 338 338 339 341 341 341 342 343 344 344 344 344 344 344 344 344 343 342 343 344 344 344
325 329 332 333 329 327 329 326 322 322 322 322 325 328 326 327 326 325 327 335 336 336 337 335 336 338 340 340 340 342 342 343 342 341 341 343 342 342 343 343 343 342 342
328 333 333 331 327 329 328 326 327 323 324 323 324 326 323 323 325 323 326 332 333 333 334 332 332 332 335 338 338 339 340 341 339 338 339 341 340 339 341 342 342 341 339
331 334 333 330 325 328 325 327 327 324 322 324 324 324 325 325 323 323 327 330 330 331 331 329 330 331 329 336 337 338 337 336 335 336 335 335 338 338 338 337 337 335 334
332 332 330 328 327 326 327 328 325 323 326 324 323 323 323 324 324 323 325 327 327 329 328 328 328 322 325 330 335 336 334 332 332 334 333 334 334 335 336 335 335 333 330
330 332 328 325 327 325 326 326 323 324 323 324 323 323 323 324 322 323 323 322 323 325 325 323 323 322 322 325 331 335 330 328 330 331 330 331 331 332 332 332 332 332 331
331 330 327 327 327 325 325 325 325 324 323 323 322 322 322 322 321 323 323 324 322 321 322 324 324 324 323 324 320 325 322 323 328 329 328 326 326 329 329 328 327 327 324
329 331 328 329 327 325 325 324 324 323 324 323 322 322 322 318 315 316 317 318 319 320 320 320 317 315 314 317 315 315 315 320 327 327 326 326 328 327 326 326 326 327 324
326 329 332 330 328 327 325 324 323 323 324 323 321 313 310 307 307 309 309 310 309 309 308 310 312 308 307 311 312 315 318 324 325 326 324 323 326 327 327 323 325 323 321
327 329 332 329 328 326 325 325 323 323 322 320 314 306 304 303 304 307 311 303 303 303 305 305 305 306 305 304 304 306 308 315 320 324 326 318 324 323 322 322 322 323 323
328 329 327 328 327 326 326 324 323 323 322 319 312 302 311 316 314 314 305 303 304 304 304 304 304 305 305 304 304 304 305 309 316 319 319 312 318 320 318 314 315 316 317
327 327 327 328 326 328 325 324 325 323 322 322 322 316 316 313 312 310 303 303 304 304 304 304 304 305 307 310 307 306 308 305 308 310 314 306 307 308 309 309 309 311 312
325 326 327 327 327 327 326 324 323 325 322 322 320 318 316 311 307 310 310 308 305 304 310 306 306 310 311 310 308 311 309 308 310 308 307 306 306 307 307 308 309 310 311
323 326 326 326 325 326 326 325 325 322 323 322 321 316 311 310 312 311 311 307 304 306 307 306 311 309 308 307 310 310 309 310 309 309 309 307 307 307 308 308 309 310 311
322 324 325 325 325 325 324 324 324 323 323 322 322 317 311 309 310 312 311 308 306 305 306 308 307 309 310 311 311 310 311 311 310 309 309 308 307 308 308 309 310 311 311
323 322 323 324 325 325 324 324 323 323 322 322 321 320 315 312 309 312 315 308 307 307 306 307 308 308 309 310 311 311 311 312 311 310 309 309 309 308 308 309 310 311 311
324 323 323 324 325 325 325 324 323 322 322 321 320 319 317 315 313 314 315 314 310 309 306 306 307 307 308 308 309 312 312 311 312 311 310 309 310 309 309 309 310 311 311
326 324 324 323 324 325 325 324 324 323 322 321 320 320 319 316 313 313 315 316 313 307 307 307 308 308 309 311 312 313 313 312 312 312 311 310 310 310 310 310 310 311 311
324 326 325 324 324 325 324 324 324 323 323 322 321 321 320 318 316 313 316 316 316 309 307 307 309 308 310 313 312 313 313 314 313 313 312 311 311 311 310 310 310 311 311
318 325 326 325 325 325 325 325 324 324 323 323 322 321 321 320 316 313 315 316 315 310 307 307 308 312 309 310 310 311 311 312 312 311 312 312 312 311 311 310 311 311 311
318 323 325 326 325 325 325 325 325 324 324 323 323 322 321 321 319 315 316 317 316 310 312 308 310 310 311 312 310 311 315 314 314 313 311 312 312 312 312 311 311 311 312
319 322 324 325 326 326 326 325 325 325 325 324 324 322 321 321 320 318 315 316 317 315 312 310 308 309 312 313 312 314 314 317 318 314 313 312 312 313 312 312 312 311 312
318 320 322 323 324 325 325 325 325 324 323 321 320 319 318 318 318 317 315 314 317 316 314 313 311 309 310 315 312 313 317 318 320 319 316 314 313 312 313 312 312 312 312
318 319 319 320 321 323 324 324 324 324 324 324 324 323 321 318 318 318 317 316 314 316 315 314 314 311 311 310 314 313 311 315 315 318 321 317 314 313 313 312 311 312 312
311 313 317 319 319 319 320 321 322 322 323 323 322 321 319 320 318 319 318 318 317 316 314 314 316 316 314 313 312 315 315 313 314 314 315 317 319 316 314 312 311 312 312
308 309 309 310 313 317 318 317 318 319 320 321 322 322 322 322 321 320 319 318 318 317 317 316 315 314 315 314 313 314 315 316 315 315 314 313 315 316 318 317 314 312 312
Wind_Speed
13 15 15 13 8 2 6 2 5 7 12 8 10 12 6 5 3 5 11 15 13 13 12 9 13 13 13 13 17 18 21 22 22 22 22 23 23 21 22 23 22 22 22
16 13 14 13 7 6 6 6 7 9 10 13 8 12 9 8 4 2 5 11 10 10 7 7 6 6 6 8 11 13 16 18 20 19 19 19 18 19 18 18 18 17 18
16 12 14 11 6 8 5 5 7 9 12 12 8 10 7 5 6 1 5 6 9 8 5 3 2 2 6 5 6 11 13 14 15 13 9 13 13 12 12 13 13 12 12
15 15 13 7 8 10 7 9 8 6 9 9 8 7 9 9 8 11 9 7 7 7 5 1 5 9 10 10 9 9 11 12 14 17 10 5 7 9 8 7 5 4 2
12 14 12 10 10 8 7 9 5 5 9 8 8 7 7 10 9 11 9 7 5 5 3 8 5 2 4 8 12 10 11 12 12 10 9 4 6 7 8 6 3 2 2
14 10 10 9 12 10 8 6 2 9 6 7 7 7 8 8 7 10 10 6 6 9 6 4 4 7 6 7 11 10 11 10 12 10 8 6 5 9 6 5 2 2 3
13 7 9 12 11 9 11 6 7 8 7 7 5 6 5 6 8 9 10 11 10 10 8 8 8 9 9 8 8 14 13 11 9 7 9 8 9 11 10 7 6 5 4
14 10 10 9 10 6 7 5 8 6 7 6 3 6 7 6 6 8 9 8 8 8 9 8 8 9 10 11 12 14 14 15 7 10 6 10 11 10 11 13 12 13 12
13 12 9 10 9 7 6 6 7 6 6 4 3 4 4 5 7 7 7 7 7 7 7 8 8 9 9 10 11 14 15 16 8 8 5 9 9 9 11 11 12 11 11
13 11 9 10 10 7 8 6 6 5 4 2 1 3 6 7 7 9 9 5 7 7 7 7 8 7 8 8 9 9 10 9 6 7 5 6 9 8 9 10 10 10 9
11 12 12 11 10 11 10 7 6 5 6 3 3 6 9 3 3 4 3 3 5 5 6 6 7 7 7 7 7 7 6 6 7 5 2 5 9 8 8 8 8 8 7
13 13 12 9 10 7 9 8 8 6 4 2 2 2 3 2 3 3 2 2 2 3 5 5 5 5 5 2 3 4 5 3 4 5 3 2 5 5 6 6 6 6 5
14 13 13 12 11 13 7 10 5 5 5 6 5 4 3 4 1 1 2 3 2 2 3 2 3 3 1 2 2 1 3 2 1 1 2 2 2 4 4 5 5 4 4
14 15 14 13 12 11 9 8 7 8 6 6 5 6 4 3 3 3 1 3 1 1 1 1 1 3 1 1 2 2 1 2 2 4 4 3 3 4 5 5 5 5 5
13 15 15 14 13 12 11 10 8 8 8 6 7 6 5 6 5 4 3 3 3 3 3 3 3 4 3 3 4 3 3 4 4 5 6 4 4 6 6 6 6 6 6
11 14 15 15 14 12 12 10 10 9 8 8 7 6 6 5 5 5 5 5 4 5 5 5 5 5 5 5 5 6 6 6 7 6 6 5 6 7 7 8 8 7 7
11 12 14 15 14 13 12 11 10 9 9 9 8 8 8 7 6 7 6 6 6 7 7 6 5 6 6 7 7 6 7 7 8 7 8 8 7 8 8 9 9 9 9
12 13 14 15 14 13 12 10 9 8 8 8 8 7 7 8 8 8 7 6 8 9 8 7 6 6 6 7 6 7 8 9 8 8 10 9 9 9 10 10 10 10 10
13 14 15 15 14 14 12 10 9 8 9 8 8 8 8 8 8 8 7 7 8 9 8 8 8 7 6 6 8 9 9 10 11 10 11 11 11 11 12 11 12 12 12
14 15 15 15 14 14 12 11 9 9 9 9 8 8 8 8 8 8 9 8 8 9 9 10 9 7 9 9 10 11 12 12 13 13 12 13 13 13 13 14 13 13 14
8 14 15 14 13 13 13 11 10 9 8 9 9 9 9 9 8 9 8 8 9 9 8 10 10 9 9 9 11 9 12 12 13 15 14 15 15 15 15 16 15 15 16
3 9 11 12 13 13 11 10 9 7 8 7 8 8 9 9 10 10 10 9 9 10 10 11 11 10 9 9 7 8 6 8 11 14 16 16 16 17 17 18 17 17 17
10 5 7 9 10 11 10 9 10 9 11 8 9 8 6 7 8 10 11 11 10 11 12 11 12 12 11 8 10 7 4 6 4 10 11 15 18 19 19 19 19 19 19
16 12 7 5 6 7 9 8 8 6 5 4 5 6 7 8 9 9 10 11 12 12 13 12 13 14 14 14 11 12 14 10 4 5 9 9 10 17 20 20 21 21 21
21 18 14 11 6 4 4 7 6 6 6 6 7 9 10 10 10 10 11 11 12 14 14 14 13 14 15 16 15 13 14 15 14 14 13 11 12 11 13 20 21 22 22
22 23 22 18 13 8 4 3 4 5 6 5 5 6 7 8 10 12 14 14 14 14 14 15 16 18 18 18 17 17 17 15 10 13 17 19 19 15 16 17 19 22 25
Wind_Direction
147 161 149 135 141 126 125 70 20 95 115 125 79 66 50 113 113 110 111 83 91 96 102 130 120 105 108 116 114 112 108 104 104 105 104 106 104 105 108 103 101 103 105
147 155 152 141 156 140 129 75 78 77 100 123 100 75 75 86 167 226 178 86 89 90 145 120 125 129 124 116 119 127 130 116 109 108 107 105 112 114 115 114 114 113 113
141 159 150 154 150 154 119 99 97 85 88 101 104 76 72 88 68 219 152 129 89 102 123 133 123 222 197 159 164 140 131 120 95 74 83 105 107 120 118 121 116 114 115
145 147 148 163 153 155 114 118 112 88 104 101 105 92 84 79 72 99 134 153 92 90 109 269 252 259 242 205 198 171 133 117 103 80 71 57 113 98 100 120 134 134 129
140 152 169 184 160 164 131 141 112 126 99 87 112 100 81 87 80 108 124 158 152 208 221 250 262 68 149 171 204 184 141 114 94 85 93 79 80 115 106 103 128 133 110
139 170 169 172 150 152 151 146 182 107 114 104 88 102 98 93 88 89 101 152 209 224 221 189 96 74 83 106 198 179 146 140 95 77 86 85 93 93 102 114 186 148 124
144 162 146 146 142 148 166 143 122 122 114 115 131 100 94 100 96 89 94 93 98 100 105 99 91 82 101 90 113 141 134 119 95 105 97 105 89 96 98 111 111 118 118
153 148 162 142 158 155 145 152 148 136 119 125 128 109 99 111 102 104 103 97 120 114 110 100 108 95 97 102 107 120 126 105 88 90 92 109 97 102 94 104 101 99 94
158 162 179 161 168 167 165 157 149 151 150 181 145 147 145 117 108 106 104 110 114 118 118 119 114 107 105 109 109 113 118 112 100 103 79 129 114 111 107 108 103 99 99
161 164 150 173 169 167 167 173 171 171 172 172 220 131 90 76 82 79 64 88 101 104 110 111 109 106 101 99 100 112 129 104 106 99 131 130 111 109 121 111 106 104 101
168 160 167 179 163 172 174 189 188 199 197 181 104 88 72 71 75 42 74 68 90 99 98 99 102 104 103 97 103 116 124 117 110 122 256 156 136 139 127 124 124 118 116
178 177 174 184 177 180 183 188 189 203 170 113 133 49 113 175 215 170 91 73 81 83 90 93 98 106 99 63 53 98 81 114 118 137 223 176 147 143 141 134 130 131 134
188 185 183 179 187 176 198 195 198 170 194 187 200 204 215 197 269 63 328 3 19 54 40 25 53 42 141 162 206 167 159 165 162 190 216 210 181 159 157 151 146 147 162
196 194 190 189 185 187 188 180 217 180 215 198 218 222 216 223 223 232 232 259 256 269 226 252 258 262 299 269 239 248 215 222 208 225 246 237 213 210 191 181 176 183 192
198 200 197 195 194 191 191 199 203 206 215 215 226 237 216 225 217 245 266 266 253 254 257 254 262 260 278 253 256 250 238 250 241 238 244 234 231 224 217 207 205 203 211
205 204 201 200 198 197 199 205 204 208 223 218 224 229 236 231 230 245 253 259 261 265 258 255 249 254 260 265 253 253 233 236 230 242 244 239 234 232 225 223 221 221 226
216 211 204 203 206 200 203 209 208 212 213 222 226 233 228 230 230 237 237 259 251 263 268 268 264 262 264 265 261 258 262 244 249 242 248 245 238 235 234 232 227 230 234
222 214 208 203 202 206 207 212 214 217 220 223 231 232 234 232 238 229 240 251 259 263 266 265 259 261 266 265 268 270 267 254 249 248 248 248 245 248 236 235 233 236 238
220 214 210 207 203 205 206 209 218 218 227 228 228 235 239 236 238 240 246 253 254 262 266 264 267 267 255 270 276 269 258 258 251 245 250 252 249 245 249 238 236 237 240
214 210 208 207 206 205 207 208 217 224 229 228 234 234 236 243 250 248 251 250 249 263 267 266 265 260 263 259 268 270 266 261 257 250 250 251 251 246 243 247 238 240 241
199 202 204 204 204 203 204 209 216 226 233 236 242 239 239 241 253 255 252 253 261 260 263 264 261 265 272 287 280 305 299 275 255 263 253 248 251 250 244 243 245 243 241
141 196 196 200 202 203 205 209 213 228 236 243 246 249 247 253 252 256 262 257 251 263 268 262 264 261 270 253 260 281 307 249 274 245 256 250 245 251 246 244 242 241 246
55 129 182 191 198 203 203 208 211 218 224 241 254 260 258 263 269 273 270 263 258 258 263 266 264 263 253 258 268 236 288 254 301 271 270 261 249 242 248 245 244 241 241
52 62 94 142 175 192 209 212 225 233 250 253 222 252 260 269 274 277 278 272 261 256 266 264 264 262 259 254 251 267 244 254 302 316 299 292 278 250 248 248 245 243 242
51 59 66 77 88 173 178 201 213 238 245 249 250 252 250 253 255 255 263 266 266 265 261 262 257 260 259 256 249 242 265 260 252 255 272 275 294 287 266 253 247 243 243
53 53 58 62 70 92 115 186 220 232 243 247 260 264 273 268 264 262 258 258 256 261 267 269 267 259 260 261 258 249 247 246 264 264 256 260 262 266 274 269 250 250 248